Location: Unspecified
(0.0000°N, 0.0000°E)
Time: 05:29:24
(UTC+01:00)

Meteor 2-8 Rocket - Visible Passes

Search period start: 05 December 2016 00:00
Search period end: 15 December 2016 00:00
Orbit: 937 x 958 km, 82.5° (Epoch: 04 December)

Date Brightness Start Highest point End Pass type
(mag) Time Alt. Az. Time Alt. Az. Time Alt. Az.
05 Dec 6.9 20:46:16 10° SW 20:50:15 18° W 20:54:15 10° NW visible
06 Dec 7.6 06:20:08 10° ENE 06:21:54 11° E 06:23:40 10° ESE visible
06 Dec 4.5 19:16:41 10° S 19:22:37 60° E 19:28:34 10° NNE visible
07 Dec 4.6 19:33:28 10° S 19:39:30 77° W 19:45:33 10° N visible
08 Dec 5.7 19:50:44 10° SSW 19:56:23 42° W 20:02:02 10° NNW visible
09 Dec 6.7 20:08:39 10° SW 20:13:15 23° W 20:17:53 10° NW visible
10 Dec 7.3 20:28:05 10° WSW 20:30:09 12° W 20:32:12 10° WNW visible
11 Dec 7.1 05:57:53 10° NE 06:01:49 18° E 06:05:43 10° SE visible
12 Dec 6.4 06:13:19 10° NNE 06:18:42 32° E 06:24:04 10° SSE visible
12 Dec 5.4 19:13:32 10° SSW 19:19:24 52° W 19:25:15 10° NNW visible
13 Dec 6.5 19:31:11 10° SW 19:36:16 28° W 19:41:22 10° NNW visible
14 Dec 7.2 19:49:48 10° WSW 19:53:09 15° W 19:56:31 10° NW visible
